Time,TemperatureF,DewpointF,PressureIn,WindDirection,WindDirectionDegrees,WindSpeedMPH,WindSpeedGustMPH,Humidity,HourlyPrecipIn,Conditions,Clouds,dailyrainin,SoftwareType,DateUTC
2013-06-21 00:01:00,75.3,72.2,30.08,South,172,0.0,0.0,90,0.00,RA,,0.00,WeatherDisplay:10.37,2013-06-21 05:01:00,
2013-06-21 00:06:00,75.2,72.4,30.08,South,173,0.0,0.0,91,0.00,RA,,0.00,WeatherDisplay:10.37,2013-06-21 05:06:00,
2013-06-21 00:11:00,75.1,72.3,30.09,South,172,0.0,0.0,91,0.00,CLR,,0.00,WeatherDisplay:10.37,2013-06-21 05:11:00,
2013-06-21 00:16:00,75.1,72.3,30.09,South,172,0.0,0.0,91,0.00,CLR,,0.00,WeatherDisplay:10.37,2013-06-21 05:16:00,
2013-06-21 00:21:00,75.0,72.2,30.08,South,173,0.0,0.0,91,0.00,CLR,,0.00,WeatherDisplay:10.37,2013-06-21 05:21:00,
2013-06-21 00:26:00,75.0,72.2,30.09,South,173,0.0,0.0,91,0.00,CLR,,0.00,WeatherDisplay:10.37,2013-06-21 05:26:00,
2013-06-21 00:31:00,75.0,72.2,30.09,South,172,0.0,0.0,91,0.00,CLR,,0.00,WeatherDisplay:10.37,2013-06-21 05:31:00,
2013-06-21 00:36:00,74.9,72.1,30.09,South,173,0.0,0.0,91,0.00,CLR,,0.00,WeatherDisplay:10.37,2013-06-21 05:36:00,
2013-06-21 00:41:00,74.9,72.1,30.08,South,173,0.0,0.0,91,0.00,CLR,,0.00,WeatherDisplay:10.37,2013-06-21 05:41:00,
2013-06-21 00:46:00,74.9,72.1,30.08,South,172,0.0,0.0,91,0.00,CLR,,0.00,WeatherDisplay:10.37,2013-06-21 05:46:00,
2013-06-21 00:51:00,74.9,72.1,30.09,South,173,0.0,0.0,91,0.00,CLR,,0.00,WeatherDisplay:10.37,2013-06-21 05:51:00,
2013-06-21 00:56:00,74.9,72.1,30.09,South,173,0.0,0.0,91,0.00,CLR,,0.00,WeatherDisplay:10.37,2013-06-21 05:56:00,
2013-06-21 01:01:00,74.9,72.1,30.09,South,172,0.0,0.0,91,0.00,CLR,,0.00,WeatherDisplay:10.37,2013-06-21 06:01:00,
2013-06-21 01:06:00,75.0,72.2,30.09,South,172,0.0,0.0,91,0.00,CLR,,0.00,WeatherDisplay:10.37,2013-06-21 06:06:00,
2013-06-21 01:11:00,75.0,72.2,30.08,South,173,0.0,0.0,91,0.00,CLR,,0.00,WeatherDisplay:10.37,2013-06-21 06:11:00,
2013-06-21 01:16:00,75.0,72.2,30.08,South,172,0.0,0.0,91,0.00,CLR,,0.00,WeatherDisplay:10.37,2013-06-21 06:16:00,
2013-06-21 01:21:00,75.0,72.2,30.09,South,173,0.0,0.0,91,0.00,CLR,,0.00,WeatherDisplay:10.37,2013-06-21 06:21:00,
2013-06-21 01:26:00,74.9,72.1,30.09,South,173,0.0,0.0,91,0.00,CLR,,0.00,WeatherDisplay:10.37,2013-06-21 06:26:00,
2013-06-21 01:31:00,74.8,72.0,30.08,South,172,0.0,0.0,91,0.00,CLR,,0.00,WeatherDisplay:10.37,2013-06-21 06:31:00,
2013-06-21 01:36:00,74.7,71.9,30.08,South,172,0.0,0.0,91,0.00,CLR,,0.00,WeatherDisplay:10.37,2013-06-21 06:36:00,
2013-06-21 01:41:00,74.6,71.8,30.08,South,173,0.0,0.0,91,0.00,CLR,,0.00,WeatherDisplay:10.37,2013-06-21 06:41:00,
2013-06-21 01:46:00,74.5,71.7,30.08,South,173,0.0,0.0,91,0.00,CLR,,0.00,WeatherDisplay:10.37,2013-06-21 06:46:00,
2013-06-21 01:51:00,74.4,71.6,30.08,South,172,0.0,0.0,91,0.00,CLR,,0.00,WeatherDisplay:10.37,2013-06-21 06:51:00,
2013-06-21 01:56:00,74.3,71.5,30.08,South,173,0.0,0.0,91,0.00,CLR,,0.00,WeatherDisplay:10.37,2013-06-21 06:56:00,
2013-06-21 02:01:00,74.2,71.4,30.08,South,172,0.0,0.0,91,0.00,CLR,,0.00,WeatherDisplay:10.37,2013-06-21 07:01:00,
2013-06-21 02:06:00,74.1,71.3,30.08,South,172,0.0,0.0,91,0.00,CLR,,0.00,WeatherDisplay:10.37,2013-06-21 07:06:00,
2013-06-21 02:11:00,74.1,71.3,30.08,South,172,1.2,0.0,91,0.00,CLR,,0.00,WeatherDisplay:10.37,2013-06-21 07:11:00,
2013-06-21 02:16:00,74.2,71.1,30.08,South,173,0.0,0.0,90,0.00,CLR,,0.00,WeatherDisplay:10.37,2013-06-21 07:16:00,
2013-06-21 02:21:00,74.4,71.3,30.08,South,173,0.0,0.0,90,0.00,CLR,,0.00,WeatherDisplay:10.37,2013-06-21 07:21:00,
2013-06-21 02:26:00,74.5,71.0,30.08,South,172,0.0,0.0,89,0.00,CLR,,0.00,WeatherDisplay:10.37,2013-06-21 07:26:00,
2013-06-21 02:31:00,74.5,71.0,30.08,South,173,0.0,0.0,89,0.00,CLR,,0.00,WeatherDisplay:10.37,2013-06-21 07:31:00,
2013-06-21 02:36:00,74.5,71.0,30.09,South,173,0.0,0.0,89,0.00,CLR,,0.00,WeatherDisplay:10.37,2013-06-21 07:36:00,
2013-06-21 02:41:00,74.5,70.7,30.08,South,173,0.0,0.0,88,0.00,CLR,,0.00,WeatherDisplay:10.37,2013-06-21 07:41:00,
2013-06-21 02:46:00,74.6,70.8,30.08,South,173,0.0,0.1,88,0.00,CLR,,0.00,WeatherDisplay:10.37,2013-06-21 07:46:00,
2013-06-21 02:52:00,74.8,70.7,30.08,South,173,0.0,0.0,87,0.00,CLR,,0.00,WeatherDisplay:10.37,2013-06-21 07:52:00,
2013-06-21 02:57:00,74.9,70.4,30.08,South,172,0.0,0.0,86,0.00,CLR,,0.00,WeatherDisplay:10.37,2013-06-21 07:57:00,
2013-06-21 03:02:00,75.0,70.5,30.08,South,173,0.0,0.0,86,0.00,CLR,,0.00,WeatherDisplay:10.37,2013-06-21 08:02:00,
2013-06-21 03:07:00,75.0,70.2,30.08,South,172,0.0,0.0,85,0.00,CLR,,0.00,WeatherDisplay:10.37,2013-06-21 08:07:00,
2013-06-21 03:12:00,75.0,70.2,30.08,South,172,0.0,0.0,85,0.00,CLR,,0.00,WeatherDisplay:10.37,2013-06-21 08:12:00,
2013-06-21 03:17:00,75.0,70.2,30.08,South,173,0.0,0.0,85,0.00,CLR,,0.00,WeatherDisplay:10.37,2013-06-21 08:17:00,
2013-06-21 03:22:00,75.0,70.2,30.07,South,173,0.0,0.0,85,0.00,CLR,,0.00,WeatherDisplay:10.37,2013-06-21 08:22:00,
2013-06-21 03:27:00,74.9,70.1,30.07,South,173,0.0,0.0,85,0.00,CLR,,0.00,WeatherDisplay:10.37,2013-06-21 08:27:00,
2013-06-21 03:32:00,74.9,70.1,30.07,South,173,0.0,0.0,85,0.00,CLR,,0.00,WeatherDisplay:10.37,2013-06-21 08:32:00,
2013-06-21 03:37:00,74.8,70.0,30.07,South,173,0.0,0.0,85,0.00,CLR,,0.00,WeatherDisplay:10.37,2013-06-21 08:37:00,
2013-06-21 03:42:00,74.7,70.2,30.07,South,173,0.0,0.0,86,0.00,CLR,,0.00,WeatherDisplay:10.37,2013-06-21 08:42:00,
2013-06-21 03:47:00,74.5,70.0,30.07,South,172,0.0,0.0,86,0.00,CLR,,0.00,WeatherDisplay:10.37,2013-06-21 08:47:00,
2013-06-21 03:52:00,74.3,69.8,30.08,South,173,1.2,1.2,86,0.00,CLR,,0.00,WeatherDisplay:10.37,2013-06-21 08:52:00,
2013-06-21 03:57:00,74.1,70.0,30.08,South,173,0.0,0.0,87,0.00,CLR,,0.00,WeatherDisplay:10.37,2013-06-21 08:57:00,
2013-06-21 04:02:00,73.9,69.8,30.08,South,173,0.0,0.0,87,0.00,CLR,,0.00,WeatherDisplay:10.37,2013-06-21 09:02:00,
2013-06-21 04:07:00,73.7,69.6,30.07,South,173,0.0,0.0,87,0.00,CLR,,0.00,WeatherDisplay:10.37,2013-06-21 09:07:00,
2013-06-21 04:12:00,73.5,69.7,30.07,South,173,0.0,0.0,88,0.00,CLR,,0.00,WeatherDisplay:10.37,2013-06-21 09:12:00,
2013-06-21 04:17:00,73.3,69.5,30.07,South,172,0.0,0.0,88,0.00,CLR,,0.00,WeatherDisplay:10.37,2013-06-21 09:17:00,
2013-06-21 04:22:00,73.2,69.4,30.07,South,172,0.0,0.0,88,0.00,CLR,,0.00,WeatherDisplay:10.37,2013-06-21 09:22:00,
2013-06-21 04:27:00,73.1,69.3,30.07,South,173,0.0,0.0,88,0.00,CLR,,0.00,WeatherDisplay:10.37,2013-06-21 09:27:00,
2013-06-21 04:32:00,73.0,69.6,30.08,South,173,0.0,0.0,89,0.00,CLR,,0.00,WeatherDisplay:10.37,2013-06-21 09:32:00,
2013-06-21 04:37:00,72.9,69.5,30.08,South,173,0.0,0.0,89,0.00,CLR,,0.00,WeatherDisplay:10.37,2013-06-21 09:37:00,
2013-06-21 04:42:00,72.7,69.3,30.08,South,173,0.0,0.0,89,0.00,CLR,,0.00,WeatherDisplay:10.37,2013-06-21 09:42:00,
2013-06-21 04:47:00,72.6,69.2,30.08,South,173,0.0,0.0,89,0.00,CLR,,0.00,WeatherDisplay:10.37,2013-06-21 09:47:00,
2013-06-21 04:52:00,72.5,69.1,30.08,South,173,0.0,0.0,89,0.00,CLR,,0.00,WeatherDisplay:10.37,2013-06-21 09:52:00,
2013-06-21 04:57:00,72.4,69.3,30.08,South,173,0.0,0.0,90,0.00,CLR,,0.00,WeatherDisplay:10.37,2013-06-21 09:57:00,
2013-06-21 05:02:00,72.2,69.1,30.08,South,172,0.0,0.0,90,0.00,CLR,,0.00,WeatherDisplay:10.37,2013-06-21 10:02:00,
2013-06-21 05:07:00,72.1,69.0,30.08,South,172,0.0,0.0,90,0.00,CLR,,0.00,WeatherDisplay:10.37,2013-06-21 10:07:00,
2013-06-21 05:12:00,72.0,68.9,30.08,South,172,0.0,0.0,90,0.00,CLR,,0.00,WeatherDisplay:10.37,2013-06-21 10:12:00,
2013-06-21 05:17:00,71.9,69.1,30.08,South,173,0.0,0.0,91,0.00,CLR,,0.00,WeatherDisplay:10.37,2013-06-21 10:17:00,
2013-06-21 05:22:00,71.8,69.0,30.08,South,172,0.0,0.0,91,0.00,CLR,,0.00,WeatherDisplay:10.37,2013-06-21 10:22:00,
2013-06-21 05:27:00,71.7,68.9,30.08,North,360,1.2,0.0,91,0.00,CLR,,0.00,WeatherDisplay:10.37,2013-06-21 10:27:00,
2013-06-21 05:32:00,71.6,68.8,30.09,North,360,0.0,0.0,91,0.00,CLR,,0.00,WeatherDisplay:10.37,2013-06-21 10:32:00,
2013-06-21 05:37:00,71.5,68.7,30.09,North,360,0.0,0.0,91,0.00,CLR,,0.00,WeatherDisplay:10.37,2013-06-21 10:37:00,
2013-06-21 05:42:00,71.4,68.6,30.09,North,360,0.0,0.0,91,0.00,CLR,,0.00,WeatherDisplay:10.37,2013-06-21 10:42:00,
2013-06-21 05:47:00,71.4,68.6,30.09,North,360,0.0,0.0,91,0.00,CLR,,0.00,WeatherDisplay:10.37,2013-06-21 10:47:00,
2013-06-21 05:52:00,71.4,68.6,30.09,North,360,0.0,0.0,91,0.00,CLR,,0.00,WeatherDisplay:10.37,2013-06-21 10:52:00,
2013-06-21 05:57:00,71.3,68.5,30.09,North,360,0.0,0.0,91,0.00,CLR,,0.00,WeatherDisplay:10.37,2013-06-21 10:57:00,
2013-06-21 06:02:00,71.3,68.5,30.09,North,360,0.0,0.0,91,0.00,CLR,,0.00,WeatherDisplay:10.37,2013-06-21 11:02:00,
2013-06-21 06:07:00,71.3,68.5,30.10,North,360,0.0,0.0,91,0.00,CLR,,0.00,WeatherDisplay:10.37,2013-06-21 11:07:00,
2013-06-21 06:12:00,71.3,68.5,30.10,North,360,0.0,0.0,91,0.00,CLR,,0.00,WeatherDisplay:10.37,2013-06-21 11:12:00,
2013-06-21 06:17:00,71.3,68.9,30.10,North,360,0.0,0.0,92,0.00,CLR,,0.00,WeatherDisplay:10.37,2013-06-21 11:17:00,
2013-06-21 06:22:00,71.3,68.9,30.10,North,360,0.0,0.0,92,0.00,CLR,,0.00,WeatherDisplay:10.37,2013-06-21 11:22:00,
2013-06-21 06:27:00,71.4,69.0,30.10,North,360,0.0,0.0,92,0.00,CLR,,0.00,WeatherDisplay:10.37,2013-06-21 11:27:00,
2013-06-21 06:32:00,71.5,69.1,30.10,North,360,0.0,0.0,92,0.00,CLR,,0.00,WeatherDisplay:10.37,2013-06-21 11:32:00,
2013-06-21 06:37:00,71.6,69.2,30.10,North,360,0.0,0.0,92,0.00,CLR,,0.00,WeatherDisplay:10.37,2013-06-21 11:37:00,
2013-06-21 06:42:00,71.7,69.3,30.10,North,360,0.0,0.0,92,0.00,CLR,,0.00,WeatherDisplay:10.37,2013-06-21 11:42:00,
2013-06-21 06:47:00,71.8,69.3,30.11,North,360,0.0,0.0,92,0.00,CLR,,0.00,WeatherDisplay:10.37,2013-06-21 11:47:00,
2013-06-21 06:52:00,72.0,69.5,30.11,North,360,1.2,0.0,92,0.00,CLR,,0.00,WeatherDisplay:10.37,2013-06-21 11:52:00,
2013-06-21 06:57:00,72.2,69.4,30.11,North,360,0.0,0.0,91,0.00,CLR,,0.00,WeatherDisplay:10.37,2013-06-21 11:57:00,
2013-06-21 07:02:00,72.6,69.8,30.12,North,360,0.0,0.0,91,0.00,CLR,,0.00,WeatherDisplay:10.37,2013-06-21 12:02:00,
2013-06-21 07:07:00,74.1,70.3,30.12,NNE,14,2.0,2.0,88,0.00,CLR,,0.00,WeatherDisplay:10.37,2013-06-21 12:07:00,
2013-06-21 07:12:00,75.2,70.7,30.12,NNE,15,0.0,0.0,86,0.00,CLR,,0.00,WeatherDisplay:10.37,2013-06-21 12:12:00,
2013-06-21 07:17:00,75.9,71.1,30.12,NNE,13,1.2,0.0,85,0.00,CLR,,0.00,WeatherDisplay:10.37,2013-06-21 12:17:00,
2013-06-21 07:22:00,76.3,70.8,30.12,WSW,256,0.0,0.0,83,0.00,CLR,,0.00,WeatherDisplay:10.37,2013-06-21 12:22:00,
2013-06-21 07:27:00,76.8,70.9,30.12,WSW,250,1.2,1.2,82,0.00,CLR,,0.00,WeatherDisplay:10.37,2013-06-21 12:27:00,
2013-06-21 07:32:00,77.2,71.3,30.12,WSW,240,0.0,0.0,82,0.00,CLR,,0.00,WeatherDisplay:10.37,2013-06-21 12:32:00,
2013-06-21 07:37:00,77.7,71.8,30.12,WSW,240,0.0,0.0,82,0.00,CLR,,0.00,WeatherDisplay:10.37,2013-06-21 12:37:00,
2013-06-21 07:42:00,78.1,71.8,30.12,WSW,240,0.0,0.0,81,0.00,CLR,,0.00,WeatherDisplay:10.37,2013-06-21 12:42:00,
2013-06-21 07:47:00,78.6,71.9,30.12,WSW,240,1.2,0.0,80,0.00,CLR,,0.00,WeatherDisplay:10.37,2013-06-21 12:47:00,
2013-06-21 07:52:00,79.1,72.0,30.13,SE,124,0.0,0.0,79,0.00,CLR,,0.00,WeatherDisplay:10.37,2013-06-21 12:52:00,
2013-06-21 07:57:00,79.4,71.9,30.13,SE,144,3.0,3.0,78,0.00,CLR,,0.00,WeatherDisplay:10.37,2013-06-21 12:57:00,
2013-06-21 08:02:00,79.5,72.0,30.13,South,191,3.5,3.5,78,0.00,CLR,,0.00,WeatherDisplay:10.37,2013-06-21 13:02:00,
2013-06-21 08:07:00,79.5,72.0,30.13,SSW,192,1.2,1.2,78,0.00,CLR,,0.00,WeatherDisplay:10.37,2013-06-21 13:07:00,
2013-06-21 08:12:00,79.5,71.7,30.13,South,169,4.6,4.6,77,0.00,CLR,,0.00,WeatherDisplay:10.37,2013-06-21 13:12:00,
2013-06-21 08:17:00,79.7,71.8,30.13,South,190,1.2,1.2,77,0.00,CLR,,0.00,WeatherDisplay:10.37,2013-06-21 13:17:00,
2013-06-21 08:22:00,80.2,71.9,30.13,South,169,2.3,2.3,76,0.00,CLR,,0.00,WeatherDisplay:10.37,2013-06-21 13:22:00,
2013-06-21 08:27:00,80.7,72.0,30.13,South,191,3.5,3.5,75,0.00,CLR,,0.00,WeatherDisplay:10.37,2013-06-21 13:27:00,
2013-06-21 08:32:00,80.8,72.1,30.13,SSE,155,3.5,3.5,75,0.00,CLR,,0.00,WeatherDisplay:10.37,2013-06-21 13:32:00,
2013-06-21 08:37:00,81.1,72.8,30.13,SSE,163,5.0,5.0,76,0.00,CLR,,0.00,WeatherDisplay:10.37,2013-06-21 13:37:00,
2013-06-21 08:42:00,81.6,72.9,30.14,South,182,4.0,4.0,75,0.00,CLR,,0.00,WeatherDisplay:10.37,2013-06-21 13:42:00,
2013-06-21 08:47:00,82.1,73.4,30.14,South,182,3.5,3.5,75,0.00,CLR,,0.00,WeatherDisplay:10.37,2013-06-21 13:47:00,
2013-06-21 08:52:00,82.1,72.2,30.14,SSW,195,5.8,5.8,72,0.00,CLR,,0.00,WeatherDisplay:10.37,2013-06-21 13:52:00,
2013-06-21 08:57:00,82.3,73.2,30.14,South,188,3.5,3.5,74,0.00,CLR,,0.00,WeatherDisplay:10.37,2013-06-21 13:57:00,
2013-06-21 09:02:00,82.7,73.2,30.14,South,169,3.0,3.0,73,0.00,CLR,,0.00,WeatherDisplay:10.37,2013-06-21 14:02:00,
2013-06-21 09:07:00,82.8,72.8,30.14,SSE,157,3.0,3.0,72,0.00,CLR,,0.00,WeatherDisplay:10.37,2013-06-21 14:07:00,
2013-06-21 09:12:00,83.3,73.3,30.14,SSW,198,5.0,5.0,72,0.00,CLR,,0.00,WeatherDisplay:10.37,2013-06-21 14:12:00,
2013-06-21 09:17:00,83.3,73.3,30.15,SSW,194,6.9,6.9,72,0.00,CLR,,0.00,WeatherDisplay:10.37,2013-06-21 14:17:00,
2013-06-21 09:22:00,83.2,72.8,30.15,South,190,4.6,4.6,71,0.00,CLR,,0.00,WeatherDisplay:10.37,2013-06-21 14:22:00,
2013-06-21 09:27:00,83.5,73.9,30.14,South,186,4.6,4.6,73,0.00,CLR,,0.00,WeatherDisplay:10.37,2013-06-21 14:27:00,
2013-06-21 09:32:00,83.8,73.8,30.14,South,177,5.8,5.8,72,0.00,CLR,,0.00,WeatherDisplay:10.37,2013-06-21 14:32:00,
2013-06-21 09:37:00,84.0,73.2,30.14,SSE,165,9.2,9.2,70,0.00,CLR,,0.00,WeatherDisplay:10.37,2013-06-21 14:37:00,
2013-06-21 09:42:00,84.0,73.2,30.15,WSW,244,6.9,6.9,70,0.00,CLR,,0.00,WeatherDisplay:10.37,2013-06-21 14:42:00,
2013-06-21 09:47:00,84.2,72.9,30.15,SSW,202,10.4,10.4,69,0.00,CLR,,0.00,WeatherDisplay:10.37,2013-06-21 14:47:00,
2013-06-21 09:52:00,84.6,73.7,30.15,SSW,196,3.5,3.5,70,0.00,CLR,,0.00,WeatherDisplay:10.37,2013-06-21 14:52:00,
2013-06-21 09:57:00,84.5,73.2,30.15,WSW,242,9.2,9.2,69,0.00,CLR,,0.00,WeatherDisplay:10.37,2013-06-21 14:57:00,
2013-06-21 10:02:00,84.4,73.5,30.15,South,179,4.0,4.7,70,0.00,CLR,,0.00,WeatherDisplay:10.37,2013-06-21 15:02:00,
2013-06-21 10:07:00,84.6,73.3,30.15,SSE,166,10.4,10.4,69,0.00,CLR,,0.00,WeatherDisplay:10.37,2013-06-21 15:07:00,
2013-06-21 10:13:00,84.6,73.7,30.15,South,184,4.6,4.6,70,0.00,CLR,,0.00,WeatherDisplay:10.37,2013-06-21 15:13:00,
2013-06-21 10:18:00,85.2,73.9,30.15,SSW,202,5.8,5.8,69,0.00,CLR,,0.00,WeatherDisplay:10.37,2013-06-21 15:18:00,
2013-06-21 10:23:00,85.3,74.0,30.14,SSW,195,3.5,3.5,69,0.00,CLR,,0.00,WeatherDisplay:10.37,2013-06-21 15:23:00,
2013-06-21 10:28:00,85.8,74.0,30.14,South,173,5.8,5.8,68,0.00,CLR,,0.00,WeatherDisplay:10.37,2013-06-21 15:28:00,
2013-06-21 10:33:00,85.7,73.5,30.14,South,182,5.8,5.8,67,0.00,CLR,,0.00,WeatherDisplay:10.37,2013-06-21 15:33:00,
2013-06-21 10:38:00,86.0,73.8,30.15,SSW,211,6.9,6.9,67,0.00,CLR,,0.00,WeatherDisplay:10.37,2013-06-21 15:38:00,
2013-06-21 10:43:00,85.7,73.9,30.15,SSW,192,6.9,6.9,68,0.00,CLR,,0.00,WeatherDisplay:10.37,2013-06-21 15:43:00,
2013-06-21 10:48:00,86.3,74.9,30.15,South,190,3.0,3.0,69,0.00,CLR,,0.00,WeatherDisplay:10.37,2013-06-21 15:48:00,
2013-06-21 10:53:00,86.5,74.2,30.15,South,176,9.2,0.0,67,0.00,CLR,,0.00,WeatherDisplay:10.37,2013-06-21 15:53:00,
2013-06-21 10:58:00,86.5,73.8,30.14,SW,218,4.6,4.6,66,0.00,CLR,,0.00,WeatherDisplay:10.37,2013-06-21 15:58:00,
2013-06-21 11:03:00,86.4,74.1,30.14,SSW,203,4.6,4.6,67,0.00,CLR,,0.00,WeatherDisplay:10.37,2013-06-21 16:03:00,
2013-06-21 11:08:00,86.5,73.3,30.14,SSE,160,3.5,3.5,65,0.00,CLR,,0.00,WeatherDisplay:10.37,2013-06-21 16:08:00,
2013-06-21 11:13:00,86.4,75.0,30.14,SW,217,1.2,1.2,69,0.00,CLR,,0.00,WeatherDisplay:10.37,2013-06-21 16:13:00,
2013-06-21 11:18:00,86.6,73.9,30.14,SSW,192,4.6,4.6,66,0.00,CLR,,0.00,WeatherDisplay:10.37,2013-06-21 16:18:00,
2013-06-21 11:23:00,87.5,73.8,30.14,South,182,6.9,6.9,64,0.00,CLR,,0.00,WeatherDisplay:10.37,2013-06-21 16:23:00,
2013-06-21 11:28:00,87.1,73.4,30.14,SE,140,2.3,2.3,64,0.00,CLR,,0.00,WeatherDisplay:10.37,2013-06-21 16:28:00,
2013-06-21 11:33:00,87.2,74.5,30.14,SSW,192,4.6,4.6,66,0.00,CLR,,0.00,WeatherDisplay:10.37,2013-06-21 16:33:00,
2013-06-21 11:38:00,88.2,74.9,30.14,East,96,2.3,2.3,65,0.00,CLR,,0.00,WeatherDisplay:10.37,2013-06-21 16:38:00,
2013-06-21 11:43:00,88.0,73.3,30.14,SSW,192,4.6,4.6,62,0.00,CLR,,0.00,WeatherDisplay:10.37,2013-06-21 16:43:00,
2013-06-21 11:48:00,87.6,74.4,30.14,SSW,198,2.0,2.0,65,0.00,CLR,,0.00,WeatherDisplay:10.37,2013-06-21 16:48:00,
2013-06-21 11:53:00,88.0,73.3,30.13,SSE,167,3.5,3.5,62,0.00,CLR,,0.00,WeatherDisplay:10.37,2013-06-21 16:53:00,
2013-06-21 11:59:00,88.4,73.2,30.13,SSW,199,2.3,2.3,61,0.00,CLR,,0.00,WeatherDisplay:10.37,2013-06-21 16:59:00,
2013-06-21 12:04:00,88.4,73.2,30.13,ENE,61,3.5,3.5,61,0.00,CLR,,0.00,WeatherDisplay:10.37,2013-06-21 17:04:00,
2013-06-21 12:10:00,89.0,73.3,30.13,SSE,155,5.0,0.0,60,0.00,CLR,,0.00,WeatherDisplay:10.37,2013-06-21 17:10:00,
2013-06-21 12:15:00,88.5,73.8,30.13,South,187,2.3,2.3,62,0.00,CLR,,0.00,WeatherDisplay:10.37,2013-06-21 17:15:00,
2013-06-21 12:20:00,88.2,72.6,30.13,South,185,3.5,3.5,60,0.00,CLR,,0.00,WeatherDisplay:10.37,2013-06-21 17:20:00,
2013-06-21 12:25:00,88.1,73.9,30.14,South,183,4.6,4.6,63,0.00,CLR,,0.00,WeatherDisplay:10.37,2013-06-21 17:25:00,
2013-06-21 12:31:00,88.3,73.6,30.13,SSW,194,2.0,0.0,62,0.00,CLR,,0.00,WeatherDisplay:10.37,2013-06-21 17:31:00,
2013-06-21 12:36:00,88.5,74.3,30.13,ESE,122,5.8,5.8,63,0.00,CLR,,0.00,WeatherDisplay:10.37,2013-06-21 17:36:00,
2013-06-21 12:43:00,88.6,73.4,30.13,SSW,211,5.8,5.8,61,0.00,CLR,,0.00,WeatherDisplay:10.37,2013-06-21 17:43:00,
2013-06-21 12:46:00,88.4,74.2,30.13,SSW,202,5.8,5.8,63,0.00,CLR,,0.00,WeatherDisplay:10.37,2013-06-21 17:46:00,
2013-06-21 12:47:00,88.3,74.1,30.13,South,181,4.0,4.0,63,0.00,CLR,,0.00,WeatherDisplay:10.37,2013-06-21 17:47:00,
2013-06-21 12:52:00,88.5,74.3,30.13,South,188,3.5,3.5,63,0.00,CLR,,0.00,WeatherDisplay:10.37,2013-06-21 17:52:00,
2013-06-21 12:57:00,88.9,74.7,30.12,South,172,6.0,6.0,63,0.00,CLR,,0.00,WeatherDisplay:10.37,2013-06-21 17:57:00,
2013-06-21 13:02:00,89.4,75.6,30.12,ENE,61,2.3,0.0,64,0.00,CLR,,0.00,WeatherDisplay:10.37,2013-06-21 18:02:00,
2013-06-21 13:07:00,89.9,74.2,30.12,WSW,241,5.8,5.8,60,0.00,CLR,,0.00,WeatherDisplay:10.37,2013-06-21 18:07:00,
2013-06-21 13:13:00,89.8,74.6,30.12,NE,51,5.8,5.8,61,0.00,CLR,,0.00,WeatherDisplay:10.37,2013-06-21 18:13:00,
2013-06-21 13:18:00,89.9,74.2,30.12,South,186,4.6,4.6,60,0.00,CLR,,0.00,WeatherDisplay:10.37,2013-06-21 18:18:00,
2013-06-21 13:23:00,89.9,73.7,30.12,SSW,197,1.2,1.2,59,0.00,CLR,,0.00,WeatherDisplay:10.37,2013-06-21 18:23:00,
2013-06-21 13:24:00,89.9,73.7,30.12,South,187,5.0,5.0,59,0.00,CLR,,0.00,WeatherDisplay:10.37,2013-06-21 18:24:00,
2013-06-21 13:29:00,89.8,73.6,30.12,SSW,199,6.9,6.9,59,0.00,CLR,,0.00,WeatherDisplay:10.37,2013-06-21 18:29:00,
2013-06-21 13:34:00,89.5,73.8,30.12,SSW,195,10.4,10.4,60,0.00,CLR,,0.00,WeatherDisplay:10.37,2013-06-21 18:34:00,
2013-06-21 13:39:00,89.8,73.6,30.12,SW,233,3.5,3.5,59,0.00,CLR,,0.00,WeatherDisplay:10.37,2013-06-21 18:39:00,
2013-06-21 13:44:00,90.0,73.2,30.12,NE,55,1.2,1.2,58,0.00,CLR,,0.00,WeatherDisplay:10.37,2013-06-21 18:44:00,
2013-06-21 13:45:00,89.9,73.1,30.12,South,169,4.0,4.0,58,0.00,CLR,,0.00,WeatherDisplay:10.37,2013-06-21 18:45:00,
2013-06-21 13:46:00,89.9,73.1,30.12,South,184,4.6,4.6,58,0.00,CLR,,0.00,WeatherDisplay:10.37,2013-06-21 18:46:00,
2013-06-21 13:47:00,89.8,73.0,30.11,SSW,192,8.1,8.1,58,0.00,CLR,,0.00,WeatherDisplay:10.37,2013-06-21 18:47:00,
2013-06-21 13:52:00,89.7,72.4,30.11,SSW,208,5.0,5.0,57,0.00,CLR,,0.00,WeatherDisplay:10.37,2013-06-21 18:52:00,
2013-06-21 13:57:00,89.8,73.0,30.11,SSW,202,9.2,9.2,58,0.00,CLR,,0.00,WeatherDisplay:10.37,2013-06-21 18:57:00,
2013-06-21 14:02:00,89.8,73.6,30.11,WSW,244,3.5,3.5,59,0.00,CLR,,0.00,WeatherDisplay:10.37,2013-06-21 19:02:00,
2013-06-21 14:07:00,89.9,73.7,30.11,NE,55,4.6,4.6,59,0.00,CLR,,0.00,WeatherDisplay:10.37,2013-06-21 19:07:00,
2013-06-21 14:12:00,90.2,73.9,30.11,South,169,3.5,3.6,59,0.00,CLR,,0.00,WeatherDisplay:10.37,2013-06-21 19:12:00,
2013-06-21 14:17:00,90.3,72.5,30.11,SSW,200,6.9,6.9,56,0.00,CLR,,0.00,WeatherDisplay:10.37,2013-06-21 19:17:00,
2013-06-21 14:21:00,90.3,72.5,30.11,South,190,3.5,3.5,56,0.00,CLR,,0.00,WeatherDisplay:10.37,2013-06-21 19:21:00,
2013-06-21 14:26:00,90.2,72.4,30.11,SSE,155,5.8,5.8,56,0.00,CLR,,0.00,WeatherDisplay:10.37,2013-06-21 19:26:00,
2013-06-21 14:31:00,90.3,71.9,30.11,SSW,200,10.4,10.4,55,0.00,CLR,,0.00,WeatherDisplay:10.37,2013-06-21 19:31:00,
2013-06-21 14:36:00,90.3,72.5,30.10,South,182,5.8,5.8,56,0.00,CLR,,0.00,WeatherDisplay:10.37,2013-06-21 19:36:00,
2013-06-21 14:41:00,90.4,72.6,30.10,SSW,192,11.5,11.5,56,0.00,CLR,,0.00,WeatherDisplay:10.37,2013-06-21 19:41:00,
2013-06-21 14:43:00,90.3,71.4,30.10,South,169,6.9,6.9,54,0.00,CLR,,0.00,WeatherDisplay:10.37,2013-06-21 19:43:00,
2013-06-21 14:48:00,90.3,71.9,30.10,South,187,8.0,8.0,55,0.00,CLR,,0.00,WeatherDisplay:10.37,2013-06-21 19:48:00,
2013-06-21 14:53:00,90.2,71.8,30.10,SSW,202,5.8,5.8,55,0.00,CLR,,0.00,WeatherDisplay:10.37,2013-06-21 19:53:00,
2013-06-21 14:58:00,90.2,73.4,30.10,South,179,6.0,6.0,58,0.00,CLR,,0.00,WeatherDisplay:10.37,2013-06-21 19:58:00,
2013-06-21 15:03:00,90.4,73.1,30.10,South,187,5.8,5.8,57,0.00,CLR,,0.00,WeatherDisplay:10.37,2013-06-21 20:03:00,
2013-06-21 15:04:00,90.4,73.1,30.09,SSE,158,4.0,4.0,57,0.00,CLR,,0.00,WeatherDisplay:10.37,2013-06-21 20:04:00,
2013-06-21 15:09:00,90.4,72.6,30.09,ESE,114,1.2,1.2,56,0.00,CLR,,0.00,WeatherDisplay:10.37,2013-06-21 20:09:00,
2013-06-21 15:11:00,90.4,73.1,30.09,NE,55,5.8,5.8,57,0.00,CLR,,0.00,WeatherDisplay:10.37,2013-06-21 20:11:00,
2013-06-21 15:13:00,90.4,73.1,30.09,SSE,168,4.0,4.0,57,0.00,CLR,,0.00,WeatherDisplay:10.37,2013-06-21 20:13:00,
2013-06-21 15:18:00,90.5,72.7,30.09,SSE,167,4.6,4.6,56,0.00,CLR,,0.00,WeatherDisplay:10.37,2013-06-21 20:18:00,
2013-06-21 15:23:00,90.6,72.8,30.09,South,180,1.2,1.2,56,0.00,CLR,,0.00,WeatherDisplay:10.37,2013-06-21 20:23:00,
2013-06-21 15:28:00,90.7,72.8,30.09,South,176,5.0,5.0,56,0.00,CLR,,0.00,WeatherDisplay:10.37,2013-06-21 20:28:00,
2013-06-21 15:33:00,91.0,73.1,30.09,South,188,10.4,10.4,56,0.00,CLR,,0.00,WeatherDisplay:10.37,2013-06-21 20:33:00,
2013-06-21 15:38:00,91.0,72.0,30.08,South,189,5.8,5.8,54,0.00,CLR,,0.00,WeatherDisplay:10.37,2013-06-21 20:38:00,
2013-06-21 15:44:00,90.2,72.4,30.08,SSE,163,4.6,4.6,56,0.00,CLR,,0.00,WeatherDisplay:10.37,2013-06-21 20:44:00,
2013-06-21 15:49:00,90.0,72.2,30.08,SSW,196,4.6,4.6,56,0.00,CLR,,0.00,WeatherDisplay:10.37,2013-06-21 20:49:00,
2013-06-21 15:55:00,90.2,72.9,30.08,South,188,2.0,0.0,57,0.00,CLR,,0.00,WeatherDisplay:10.37,2013-06-21 20:55:00,
2013-06-21 16:00:00,90.5,72.1,30.08,South,178,5.8,5.8,55,0.00,CLR,,0.00,WeatherDisplay:10.37,2013-06-21 21:00:00,
2013-06-21 16:04:00,90.5,73.2,30.08,South,178,5.8,5.8,57,0.00,CLR,,0.00,WeatherDisplay:10.37,2013-06-21 21:04:00,
2013-06-21 16:09:00,90.2,71.8,30.08,SSW,200,4.6,4.6,55,0.00,CLR,,0.00,WeatherDisplay:10.37,2013-06-21 21:09:00,
2013-06-21 16:14:00,89.7,71.9,30.07,SSW,192,3.5,3.5,56,0.00,CLR,,0.00,WeatherDisplay:10.37,2013-06-21 21:14:00,
2013-06-21 16:19:00,89.4,71.6,30.07,SSE,163,3.5,3.5,56,0.00,CLR,,0.00,WeatherDisplay:10.37,2013-06-21 21:19:00,
2013-06-21 16:24:00,89.7,72.4,30.07,South,190,3.5,3.5,57,0.00,CLR,,0.00,WeatherDisplay:10.37,2013-06-21 21:24:00,
2013-06-21 16:29:00,90.0,71.1,30.07,South,183,5.8,5.8,54,0.00,CLR,,0.00,WeatherDisplay:10.37,2013-06-21 21:29:00,
2013-06-21 16:34:00,90.3,71.9,30.07,South,184,7.0,7.0,55,0.00,CLR,,0.00,WeatherDisplay:10.37,2013-06-21 21:34:00,
2013-06-21 16:39:00,90.3,71.9,30.07,SSW,205,9.2,9.2,55,0.00,CLR,,0.00,WeatherDisplay:10.37,2013-06-21 21:39:00,
2013-06-21 16:44:00,90.3,71.9,30.07,South,171,5.8,5.8,55,0.00,CLR,,0.00,WeatherDisplay:10.37,2013-06-21 21:44:00,
2013-06-21 16:49:00,90.2,71.3,30.07,SSW,195,3.5,3.5,54,0.00,CLR,,0.00,WeatherDisplay:10.37,2013-06-21 21:49:00,
2013-06-21 16:54:00,90.1,71.8,30.06,SSW,202,3.5,3.5,55,0.00,CLR,,0.00,WeatherDisplay:10.37,2013-06-21 21:54:00,
2013-06-21 16:59:00,90.2,72.9,30.06,SSW,202,2.3,2.3,57,0.00,CLR,,0.00,WeatherDisplay:10.37,2013-06-21 21:59:00,
2013-06-21 17:04:00,90.4,71.5,30.06,South,180,9.2,9.2,54,0.00,CLR,,0.00,WeatherDisplay:10.37,2013-06-21 22:04:00,
2013-06-21 17:09:00,90.3,70.8,30.06,ENE,59,4.0,4.0,53,0.00,CLR,,0.00,WeatherDisplay:10.37,2013-06-21 22:09:00,
2013-06-21 17:14:00,90.3,71.9,30.06,SSE,159,3.5,3.5,55,0.00,CLR,,0.00,WeatherDisplay:10.37,2013-06-21 22:14:00,
2013-06-21 17:19:00,90.4,72.0,30.06,South,182,1.2,1.2,55,0.00,CLR,,0.00,WeatherDisplay:10.37,2013-06-21 22:19:00,
2013-06-21 17:24:00,90.5,71.0,30.06,South,190,8.1,8.1,53,0.00,CLR,,0.00,WeatherDisplay:10.37,2013-06-21 22:24:00,
2013-06-21 17:29:00,90.3,71.4,30.06,SSW,207,4.6,4.6,54,0.00,CLR,,0.00,WeatherDisplay:10.37,2013-06-21 22:29:00,
2013-06-21 17:34:00,90.3,71.9,30.05,South,173,6.9,6.9,55,0.00,CLR,,0.00,WeatherDisplay:10.37,2013-06-21 22:34:00,
2013-06-21 17:39:00,90.4,72.0,30.05,South,175,6.0,6.0,55,0.00,CLR,,0.00,WeatherDisplay:10.37,2013-06-21 22:39:00,
2013-06-21 17:44:00,90.5,72.1,30.05,SSW,201,5.0,5.0,55,0.00,CLR,,0.00,WeatherDisplay:10.37,2013-06-21 22:44:00,
2013-06-21 17:49:00,90.5,72.1,30.05,SSW,199,9.2,9.2,55,0.00,CLR,,0.00,WeatherDisplay:10.37,2013-06-21 22:49:00,
2013-06-21 17:54:00,90.4,72.6,30.05,SSE,156,3.5,3.5,56,0.00,CLR,,0.00,WeatherDisplay:10.37,2013-06-21 22:54:00,
2013-06-21 17:59:00,90.3,71.9,30.05,South,178,3.5,3.5,55,0.00,CLR,,0.00,WeatherDisplay:10.37,2013-06-21 22:59:00,
2013-06-21 18:04:00,90.1,71.8,30.05,South,187,9.2,9.2,55,0.00,CLR,,0.00,WeatherDisplay:10.37,2013-06-21 23:04:00,
2013-06-21 18:09:00,89.8,72.0,30.05,SSW,213,5.8,5.8,56,0.00,CLR,,0.00,WeatherDisplay:10.37,2013-06-21 23:09:00,
2013-06-21 18:14:00,89.6,71.8,30.05,South,180,3.5,3.5,56,0.00,CLR,,0.00,WeatherDisplay:10.37,2013-06-21 23:14:00,
2013-06-21 18:19:00,89.5,71.7,30.05,South,182,3.0,3.0,56,0.00,CLR,,0.00,WeatherDisplay:10.37,2013-06-21 23:19:00,
2013-06-21 18:24:00,89.3,71.5,30.05,SSE,165,6.9,6.9,56,0.00,CLR,,0.00,WeatherDisplay:10.37,2013-06-21 23:24:00,
2013-06-21 18:29:00,89.2,71.5,30.05,SSW,195,3.5,3.5,56,0.00,CLR,,0.00,WeatherDisplay:10.37,2013-06-21 23:29:00,
2013-06-21 18:34:00,89.1,71.9,30.05,South,185,3.5,3.5,57,0.00,CLR,,0.00,WeatherDisplay:10.37,2013-06-21 23:34:00,
2013-06-21 18:39:00,88.9,71.2,30.05,South,176,2.3,2.3,56,0.00,CLR,,0.00,WeatherDisplay:10.37,2013-06-21 23:39:00,
2013-06-21 18:44:00,88.7,71.0,30.05,South,173,3.0,3.0,56,0.00,CLR,,0.00,WeatherDisplay:10.37,2013-06-21 23:44:00,
2013-06-21 18:49:00,88.4,71.2,30.05,SSW,194,4.6,4.6,57,0.00,CLR,,0.00,WeatherDisplay:10.37,2013-06-21 23:49:00,
2013-06-21 18:54:00,88.3,71.6,30.06,South,186,1.2,0.0,58,0.00,CLR,,0.00,WeatherDisplay:10.37,2013-06-21 23:54:00,
2013-06-21 18:59:00,88.4,71.2,30.05,South,179,4.6,4.6,57,0.00,CLR,,0.00,WeatherDisplay:10.37,2013-06-21 23:59:00,
2013-06-21 19:04:00,88.4,71.7,30.05,South,179,1.2,1.5,58,0.00,CLR,,0.00,WeatherDisplay:10.37,2013-06-22 00:04:00,
2013-06-21 19:09:00,88.4,71.7,30.05,SSW,202,3.5,3.5,58,0.00,CLR,,0.00,WeatherDisplay:10.37,2013-06-22 00:09:00,
2013-06-21 19:14:00,88.3,71.6,30.05,South,179,5.8,5.8,58,0.00,CLR,,0.00,WeatherDisplay:10.37,2013-06-22 00:14:00,
2013-06-21 19:19:00,88.3,72.2,30.05,South,188,2.3,0.0,59,0.00,CLR,,0.00,WeatherDisplay:10.37,2013-06-22 00:19:00,
2013-06-21 19:24:00,88.1,72.0,30.05,SSE,168,0.0,0.1,59,0.00,CLR,,0.00,WeatherDisplay:10.37,2013-06-22 00:24:00,
2013-06-21 19:29:00,88.0,71.9,30.05,South,173,3.5,3.5,59,0.00,CLR,,0.00,WeatherDisplay:10.37,2013-06-22 00:29:00,
2013-06-21 19:34:00,87.8,72.2,30.05,South,182,2.3,2.3,60,0.00,CLR,,0.00,WeatherDisplay:10.37,2013-06-22 00:34:00,
2013-06-21 19:39:00,87.6,72.0,30.05,South,182,1.2,1.2,60,0.00,CLR,,0.00,WeatherDisplay:10.37,2013-06-22 00:39:00,
2013-06-21 19:44:00,87.4,72.3,30.05,South,185,1.2,1.2,61,0.00,CLR,,0.00,WeatherDisplay:10.37,2013-06-22 00:44:00,
2013-06-21 19:49:00,87.2,72.1,30.05,South,183,0.0,0.0,61,0.00,CLR,,0.00,WeatherDisplay:10.37,2013-06-22 00:49:00,
2013-06-21 19:55:00,87.1,72.5,30.05,South,183,0.0,0.1,62,0.00,CLR,,0.00,WeatherDisplay:10.37,2013-06-22 00:55:00,
2013-06-21 20:00:00,86.8,72.7,30.05,South,183,0.0,0.0,63,0.00,CLR,,0.00,WeatherDisplay:10.37,2013-06-22 01:00:00,
2013-06-21 20:05:00,86.6,73.9,30.05,South,183,0.0,0.0,66,0.00,CLR,,0.00,WeatherDisplay:10.37,2013-06-22 01:05:00,
2013-06-21 20:10:00,86.2,74.4,30.06,South,183,0.0,0.0,68,0.00,CLR,,0.00,WeatherDisplay:10.37,2013-06-22 01:10:00,
2013-06-21 20:15:00,85.7,74.8,30.06,South,183,0.0,0.0,70,0.00,CLR,,0.00,WeatherDisplay:10.37,2013-06-22 01:15:00,
2013-06-21 20:20:00,85.2,75.1,30.06,South,183,0.0,0.0,72,0.00,CLR,,0.00,WeatherDisplay:10.37,2013-06-22 01:20:00,
2013-06-21 20:25:00,84.5,74.1,30.06,South,183,0.0,0.0,71,0.00,CLR,,0.00,WeatherDisplay:10.37,2013-06-22 01:25:00,
2013-06-21 20:30:00,84.0,73.6,30.06,South,183,0.0,0.0,71,0.00,CLR,,0.00,WeatherDisplay:10.37,2013-06-22 01:30:00,
2013-06-21 20:35:00,83.7,72.9,30.06,South,183,0.0,0.0,70,0.00,CLR,,0.00,WeatherDisplay:10.37,2013-06-22 01:35:00,
2013-06-21 20:40:00,83.6,73.2,30.06,South,183,0.0,0.0,71,0.00,CLR,,0.00,WeatherDisplay:10.37,2013-06-22 01:40:00,
2013-06-21 20:45:00,83.5,74.7,30.06,South,183,0.0,0.0,75,0.00,CLR,,0.00,WeatherDisplay:10.37,2013-06-22 01:45:00,
2013-06-21 20:50:00,83.0,74.7,30.06,South,183,0.0,0.0,76,0.00,CLR,,0.00,WeatherDisplay:10.37,2013-06-22 01:50:00,
2013-06-21 20:55:00,82.3,74.7,30.06,South,183,0.0,0.0,78,0.00,CLR,,0.00,WeatherDisplay:10.37,2013-06-22 01:55:00,
2013-06-21 21:00:00,81.7,74.5,30.06,South,183,0.0,0.0,79,0.00,CLR,,0.00,WeatherDisplay:10.37,2013-06-22 02:00:00,
2013-06-21 21:05:00,81.1,74.3,30.06,South,183,0.0,0.0,80,0.00,CLR,,0.00,WeatherDisplay:10.37,2013-06-22 02:05:00,
2013-06-21 21:10:00,80.7,74.3,30.06,South,183,0.0,0.0,81,0.00,CLR,,0.00,WeatherDisplay:10.37,2013-06-22 02:10:00,
2013-06-21 21:15:00,80.4,74.0,30.06,South,183,0.0,0.0,81,0.00,CLR,,0.00,WeatherDisplay:10.37,2013-06-22 02:15:00,
2013-06-21 21:20:00,80.1,74.1,30.07,South,183,0.0,0.0,82,0.00,CLR,,0.00,WeatherDisplay:10.37,2013-06-22 02:20:00,
2013-06-21 21:25:00,79.9,73.5,30.07,South,183,0.0,0.0,81,0.00,CLR,,0.00,WeatherDisplay:10.37,2013-06-22 02:25:00,
2013-06-21 21:30:00,79.8,73.1,30.07,South,183,0.0,0.0,80,0.00,CLR,,0.00,WeatherDisplay:10.37,2013-06-22 02:30:00,
2013-06-21 21:35:00,79.9,73.9,30.07,South,183,0.0,0.0,82,0.00,CLR,,0.00,WeatherDisplay:10.37,2013-06-22 02:35:00,
2013-06-21 21:40:00,79.8,73.8,30.07,South,183,0.0,0.0,82,0.00,CLR,,0.00,WeatherDisplay:10.37,2013-06-22 02:40:00,
2013-06-21 21:45:00,79.7,74.1,30.07,South,183,0.0,0.0,83,0.00,CLR,,0.00,WeatherDisplay:10.37,2013-06-22 02:45:00,
2013-06-21 21:50:00,79.6,74.3,30.07,South,183,0.0,0.0,84,0.00,CLR,,0.00,WeatherDisplay:10.37,2013-06-22 02:50:00,
2013-06-21 21:55:00,79.3,74.0,30.07,South,183,0.0,0.0,84,0.00,CLR,,0.00,WeatherDisplay:10.37,2013-06-22 02:55:00,
2013-06-21 22:00:00,79.0,73.7,30.08,South,183,0.0,0.0,84,0.00,CLR,,0.00,WeatherDisplay:10.37,2013-06-22 03:00:00,
2013-06-21 22:05:00,78.7,73.8,30.08,South,183,0.0,0.0,85,0.00,CLR,,0.00,WeatherDisplay:10.37,2013-06-22 03:05:00,
2013-06-21 22:10:00,78.6,73.7,30.08,South,183,0.0,0.0,85,0.00,CLR,,0.00,WeatherDisplay:10.37,2013-06-22 03:10:00,
2013-06-21 22:15:00,78.4,73.5,30.08,South,183,0.0,0.0,85,0.00,CLR,,0.00,WeatherDisplay:10.37,2013-06-22 03:15:00,
2013-06-21 22:20:00,78.1,73.6,30.08,South,183,0.0,0.0,86,0.00,CLR,,0.00,WeatherDisplay:10.37,2013-06-22 03:20:00,
2013-06-21 22:25:00,77.8,73.3,30.08,South,183,0.0,0.0,86,0.00,CLR,,0.00,WeatherDisplay:10.37,2013-06-22 03:25:00,
2013-06-21 22:30:00,77.6,73.1,30.08,South,183,0.0,0.0,86,0.00,CLR,,0.00,WeatherDisplay:10.37,2013-06-22 03:30:00,
2013-06-21 22:35:00,77.5,73.0,30.09,South,183,0.0,0.0,86,0.00,CLR,,0.00,WeatherDisplay:10.37,2013-06-22 03:35:00,
2013-06-21 22:40:00,77.4,72.9,30.09,South,183,0.0,0.0,86,0.00,CLR,,0.00,WeatherDisplay:10.37,2013-06-22 03:40:00,
2013-06-21 22:45:00,77.5,73.3,30.09,South,183,0.0,0.0,87,0.00,CLR,,0.00,WeatherDisplay:10.37,2013-06-22 03:45:00,
2013-06-21 22:50:00,77.4,73.2,30.09,South,183,0.0,0.0,87,0.00,CLR,,0.00,WeatherDisplay:10.37,2013-06-22 03:50:00,
2013-06-21 22:55:00,77.4,72.9,30.09,South,183,0.0,0.0,86,0.00,CLR,,0.00,WeatherDisplay:10.37,2013-06-22 03:55:00,
2013-06-21 23:00:00,77.3,72.8,30.09,South,183,0.0,0.0,86,0.00,CLR,,0.00,WeatherDisplay:10.37,2013-06-22 04:00:00,
2013-06-21 23:01:00,77.3,72.8,30.09,South,183,0.0,0.0,86,0.00,CLR,,0.00,WeatherDisplay:10.37,2013-06-22 04:01:00,
2013-06-21 23:06:00,77.3,72.8,30.09,South,183,0.0,0.0,86,0.00,CLR,,0.00,WeatherDisplay:10.37,2013-06-22 04:06:00,
2013-06-21 23:11:00,77.3,72.8,30.09,South,183,0.0,0.0,86,0.00,CLR,,0.00,WeatherDisplay:10.37,2013-06-22 04:11:00,
2013-06-21 23:16:00,77.3,72.8,30.09,South,183,0.0,0.0,86,0.00,CLR,,0.00,WeatherDisplay:10.37,2013-06-22 04:16:00,
2013-06-21 23:21:00,77.3,72.8,30.09,South,183,0.0,0.0,86,0.00,CLR,,0.00,WeatherDisplay:10.37,2013-06-22 04:21:00,
2013-06-21 23:26:00,77.2,72.7,30.09,South,183,0.0,0.0,86,0.00,CLR,,0.00,WeatherDisplay:10.37,2013-06-22 04:26:00,
2013-06-21 23:31:00,77.2,72.7,30.09,South,183,0.0,0.0,86,0.00,CLR,,0.00,WeatherDisplay:10.37,2013-06-22 04:31:00,
2013-06-21 23:36:00,77.3,72.8,30.09,South,183,0.0,0.0,86,0.00,CLR,,0.00,WeatherDisplay:10.37,2013-06-22 04:36:00,
2013-06-21 23:41:00,77.4,72.9,30.09,South,183,0.0,0.0,86,0.00,CLR,,0.00,WeatherDisplay:10.37,2013-06-22 04:41:00,
2013-06-21 23:46:00,77.4,72.9,30.09,South,183,0.0,0.0,86,0.00,CLR,,0.00,WeatherDisplay:10.37,2013-06-22 04:46:00,
2013-06-21 23:51:00,77.4,72.5,30.09,ESE,112,0.0,0.0,85,0.00,CLR,,0.00,WeatherDisplay:10.37,2013-06-22 04:51:00,
2013-06-21 23:56:00,77.5,72.6,30.09,ESE,112,0.0,0.0,85,0.00,CLR,,0.00,WeatherDisplay:10.37,2013-06-22 04:56:00,